TimeAKDT,TemperatureF,Dew PointF,Humidity,Sea Level PressureIn,VisibilityMPH,Wind Direction,Wind SpeedMPH,Gust SpeedMPH,PrecipitationIn,Events,Conditions,WindDirDegrees,DateUTC
4:36 AM,28.4,17.6,64,30.34,10.0,Calm,Calm,-,N/A,,Clear,0,2012-10-25 12:36:00
4:56 AM,28.4,17.6,64,30.33,10.0,SW,4.6,-,N/A,,Clear,220,2012-10-25 12:56:00
5:16 AM,28.4,17.6,64,30.33,10.0,SSW,5.8,-,N/A,,Clear,200,2012-10-25 13:16:00
5:36 AM,28.4,19.4,69,30.33,10.0,Calm,Calm,-,N/A,,Clear,0,2012-10-25 13:36:00
5:56 AM,26.6,17.6,69,30.34,10.0,Calm,Calm,-,N/A,,Clear,0,2012-10-25 13:56:00
6:16 AM,26.6,17.6,69,30.34,10.0,Calm,Calm,-,N/A,,Clear,0,2012-10-25 14:16:00
6:36 AM,26.6,17.6,69,30.34,10.0,Calm,Calm,-,N/A,,Clear,0,2012-10-25 14:36:00
6:56 AM,26.6,17.6,69,30.33,10.0,SW,4.6,-,N/A,,Clear,220,2012-10-25 14:56:00
7:16 AM,28.4,17.6,64,30.34,10.0,SSW,4.6,-,N/A,,Clear,210,2012-10-25 15:16:00
7:36 AM,28.4,17.6,64,30.33,10.0,SW,3.5,-,N/A,,Clear,230,2012-10-25 15:36:00
7:56 AM,28.4,17.6,64,30.33,10.0,SSW,4.6,-,N/A,,Clear,200,2012-10-25 15:56:00
8:16 AM,26.6,17.6,69,30.33,10.0,SW,3.5,-,N/A,,Clear,220,2012-10-25 16:16:00
8:36 AM,28.4,17.6,64,30.33,10.0,WSW,3.5,-,N/A,,Clear,240,2012-10-25 16:36:00
8:56 AM,28.4,17.6,64,30.34,10.0,WSW,3.5,-,N/A,,Clear,240,2012-10-25 16:56:00
9:16 AM,28.4,17.6,64,30.33,10.0,SW,3.5,-,N/A,,Clear,230,2012-10-25 17:16:00
9:36 AM,30.2,17.6,60,30.34,10.0,Calm,Calm,-,N/A,,Clear,0,2012-10-25 17:36:00
9:56 AM,30.2,19.4,64,30.34,10.0,WSW,3.5,-,N/A,,Clear,240,2012-10-25 17:56:00
10:16 AM,33.8,19.4,56,30.35,10.0,Calm,Calm,-,N/A,,Clear,0,2012-10-25 18:16:00
10:36 AM,33.8,23.0,65,30.35,10.0,West,3.5,-,N/A,,Clear,270,2012-10-25 18:36:00
10:56 AM,35.6,21.2,56,30.35,10.0,Calm,Calm,-,N/A,,Clear,0,2012-10-25 18:56:00
11:16 AM,37.4,19.4,48,30.35,10.0,Calm,Calm,-,N/A,,Clear,0,2012-10-25 19:16:00
11:36 AM,-9999,-9999,N/A,-9999,10.0,North,-9999.0,-,N/A,,Clear,0,2012-10-25 19:36:00
12:16 PM,39.2,17.6,42,30.37,10.0,ENE,4.6,-,N/A,,Clear,60,2012-10-25 20:16:00
12:36 PM,39.2,17.6,42,30.35,10.0,ENE,4.6,-,N/A,,Clear,60,2012-10-25 20:36:00
12:56 PM,39.2,17.6,42,30.37,10.0,East,3.5,-,N/A,,Clear,90,2012-10-25 20:56:00
1:16 PM,39.2,17.6,42,30.35,10.0,ENE,4.6,-,N/A,,Clear,60,2012-10-25 21:16:00
1:36 PM,39.2,19.4,45,30.36,10.0,East,4.6,-,N/A,,Clear,100,2012-10-25 21:36:00
1:56 PM,39.2,19.4,45,30.38,10.0,NE,5.8,-,N/A,,Clear,50,2012-10-25 21:56:00
2:16 PM,39.2,17.6,42,30.37,10.0,East,4.6,-,N/A,,Clear,80,2012-10-25 22:16:00
2:36 PM,39.2,19.4,45,30.37,10.0,Calm,Calm,-,N/A,,Clear,0,2012-10-25 22:36:00
2:56 PM,39.2,17.6,42,30.37,10.0,Calm,Calm,-,N/A,,Clear,0,2012-10-25 22:56:00
3:16 PM,39.2,19.4,45,30.37,10.0,ENE,4.6,-,N/A,,Clear,70,2012-10-25 23:16:00
3:36 PM,39.2,19.4,45,30.36,10.0,ESE,6.9,-,N/A,,Clear,110,2012-10-25 23:36:00
3:56 PM,39.2,17.6,42,30.36,10.0,East,3.5,-,N/A,,Clear,90,2012-10-25 23:56:00
4:16 PM,37.4,17.6,45,30.37,10.0,SSE,4.6,-,N/A,,Clear,150,2012-10-26 00:16:00
4:36 PM,33.8,17.6,52,30.36,10.0,SSE,3.5,-,N/A,,Clear,160,2012-10-26 00:36:00
4:56 PM,33.8,17.6,52,30.36,10.0,SSE,5.8,-,N/A,,Clear,150,2012-10-26 00:56:00
5:16 PM,32.0,17.6,55,30.37,10.0,ESE,4.6,-,N/A,,Clear,120,2012-10-26 01:16:00
5:36 PM,33.8,15.8,48,30.37,10.0,SE,4.6,-,N/A,,Clear,130,2012-10-26 01:36:00
5:56 PM,30.2,19.4,64,30.37,10.0,Calm,Calm,-,N/A,,Clear,0,2012-10-26 01:56:00
6:16 PM,30.2,17.6,60,30.34,10.0,ESE,5.8,-,N/A,,Clear,120,2012-10-26 02:16:00
6:36 PM,33.8,17.6,52,30.32,10.0,ESE,5.8,-,N/A,,Clear,120,2012-10-26 02:36:00
6:56 PM,-9999,-9999,N/A,-9999,10.0,North,-9999.0,-,N/A,,Clear,0,2012-10-26 02:56:00
7:16 PM,30.2,19.4,64,30.32,10.0,ESE,4.6,-,N/A,,Clear,110,2012-10-26 03:16:00
7:56 PM,30.2,19.4,64,30.33,10.0,Calm,Calm,-,N/A,,Clear,0,2012-10-26 03:56:00
8:16 PM,28.4,19.4,69,30.32,10.0,West,3.5,-,N/A,,Clear,260,2012-10-26 04:16:00
8:36 PM,28.4,19.4,69,30.32,10.0,Calm,Calm,-,N/A,,Clear,0,2012-10-26 04:36:00
8:56 PM,28.4,19.4,69,30.32,10.0,Calm,Calm,-,N/A,,Clear,0,2012-10-26 04:56:00
9:36 PM,28.4,17.6,64,30.31,10.0,SW,3.5,-,N/A,,Clear,230,2012-10-26 05:36:00
9:56 PM,28.4,19.4,69,30.31,10.0,SSW,3.5,-,N/A,,Clear,210,2012-10-26 05:56:00
10:16 PM,28.4,17.6,64,30.31,10.0,SSW,3.5,-,N/A,,Clear,210,2012-10-26 06:16:00
10:36 PM,28.4,17.6,64,30.31,10.0,SSW,3.5,-,N/A,,Clear,200,2012-10-26 06:36:00
10:56 PM,26.6,19.4,74,30.31,10.0,Calm,Calm,-,N/A,,Clear,0,2012-10-26 06:56:00
11:16 PM,26.6,17.6,69,30.31,10.0,SSW,4.6,-,N/A,,Clear,210,2012-10-26 07:16:00
11:36 PM,26.6,17.6,69,30.31,10.0,SW,3.5,-,N/A,,Clear,230,2012-10-26 07:36:00
11:56 PM,26.6,17.6,69,30.31,10.0,SW,5.8,-,N/A,,Clear,230,2012-10-26 07:56:00